User: anonymous   Login
Location: Unspecified
(0.0000°N, 0.0000°E)
Time: 09:20:59
(UTC+00:00)
Language:

Nadezhda 6 - Orbit

View from above orbital plane
View from above orbital plane
View from above satellite
View from above satellite

Ground track
Ground track

The orbit data is extracted from the following two-line orbital elements,

1 26384U 00033A   17328.18677618  .00000098  00000-0  26332-4 0  9991
2 26384  97.9969  30.1610 0013841 242.1961 117.7848 14.66386917930253
Epoch (UTC): 24 November 2017 04:28:57
Eccentricity: 0.0013841
inclination: 97.9969°
perigee height: 663 km
apogee height: 682 km
right ascension of ascending node: 30.1610°
argument of perigee: 242.1961°
revolutions per day: 14.66386917
mean anomaly at epoch: 117.7848°
orbit number at epoch: 93025

The dashed part of the orbit path shows where the satellite is in the earth's shadow,  

DLR